ROMMA est une association bénévole à but non lucratif. Votre soutien est indispensable : ADHERER à ROMMA ou FAIRE un DON

Val-d'Arly - (73, Savoie)

Beaufortain (2050 m)   Longitude: 06° 35' 21" E   Latitude: 45° 46' 53" N Station romma n°118
 

Détail journalier du     <<     >>

Température Humidité Vent Dir Rafale Dir. rafale Ensol.
Heure (°C) (%) (km/h) (km/h) (min)
01:00 0.8725E10ENE0
02:00 0.5739E15E0
03:00 -0.2785ENE11E0
04:00 0.46710ESE15E0
05:00 0.65515ESE21ESE0
06:00 0.74818ESE27ESE0
07:00 1.14313ESE21SE0
08:00 1.73310ESE24ESE60
09:00 2.13016ESE26ESE60
10:00 3.1405E15ESE60
11:00 3.1364E11ESE60
12:00 3.7436SE13ESE60
13:00 4.8447SO16OSO60
14:00 5.1447O16ONO60
15:00 6.3412ONO13O60
16:00 6.6392NE6O60
17:00 5.8443NNE6NE60
18:00 5.0514NE8NE60
19:00 3.2586NNE13NNE10
20:00 2.7625ENE8NNE0
21:00 2.8573ENE8SE0
22:00 2.6595SSE10SSE0
23:00 2.6622S8S0
minuit 2.5575ESE15ESE0

Graphique du 30-03-2019

 

Serveur OMMA